Aérodrome :
LOGIN :

S'inscrire | Disclaimer

   EN    FR    IT 

 










Légende :    VFR   VFR Marginal   IFR   IFR Intensif   IFR Très Intensif
Visi : 
Plafond : 
>= 8 km
>= 3000ft
5 à 8 km
1000 à 3000 ft
1500m à 5 km
500 à 1000 ft
800 à 1500m
200 à 500 ft
< 800m
< 200 ft
Symboles :   Orages  Brouillard  Fortes neiges  Fortes précipitations  Vent > 20 kt
SIGMETs :   Divers  Orages  Givrage  Turbulence  Onde Orograph.  Cendres Volcan.






- Altitude de l'aérodrome : 1400 ft


LSME - Luzern Emmen

DERNIER METAR :
  • 191250Z AUTO VRB05KT 9999NDV -RA FEW016 BKN029 OVC057 12/10 Q1017 RERA RMK

METARs EXPIRÉS :
  • 191220Z AUTO 16004KT 120V210 9999NDV -RA FEW025 SCT029 OVC046 12/10 Q1017 RERA RMK
  • 191150Z AUTO 19003KT 140V250 9000NDV RA SCT036 OVC042 12/11 Q1016 RMK
  • 191120Z AUTO 21003KT 160V250 9000NDV RA SCT031 BKN039 OVC049 12/11 Q1016 RMK
  • 191050Z AUTO 18003KT 140V280 9000NDV RA BKN033 OVC045 12/11 Q1016 RMK
  • 191020Z AUTO 18006KT 140V210 9999NDV RA SCT031 OVC044 13/12 Q1016 RMK

Prévision TAF périmée.



MET'MAP, la Météo Aéronautique d'un coup d'oeil ! - Copyright ORBIFLY Décembre 2007 - Disclaimer

ORBIFLY MET'MAP TEAM :

Programmation & Développement : Alexandra Zaïnal
Sur une idée originale de : Baudouin d'Aumeries
Assistance à la programmation : Marc-Olivier Méhu
Soutien technique & logistique : Manuel Goepfert

Contact : metmap@orbifly.com




SOURCES & CREDITS :

   NOAA